Location: Unspecified
(50.0000°N, 15.0000°E)
Time: 04:37:54
(UTC+02:00)

ISS - Pass Details

Date: 20 September 2021
Orbit: 417 x 423 km, 51.6° (Epoch: 27 October)

Event Time Altitude Azimuth Distance (km) Brightness Sun altitude
Rises 20:49:35 0° 251° (WSW) 2,359 0.8 -17.6°
Reaches altitude 10° 20:51:40 10° 251° (WSW) 1,498 -0.3 -17.9°
Maximum altitude 20:55:02 87° 168° (SSE) 426 -3.9 -18.4°
Enters shadow 20:55:33 61° 79° (ENE) 480 -3.8 -18.5°
